Flag for Germany Weather past 2 weeks in Berlin, Berlin, Germany

Now
90 °F

Hot.


Feels Like: 87 °F
Forecast: 61 / 71 °F
Wind: 3 mph from South

Location: Berlin-Tempelhof

Current Time: Jul 7, 2015 at 8:13:19 PM

Latest Report: Jul 7, 2015 at 7:00 PM


Visibility: N/A

Pressure: 29.70 "Hg

Humidity: 25%

Dew point: 49 °F

Location of BerlinLocation

Historic Weather in Berlin — Graph

°F

Berlin temperature yesterday

Maximum temperature yesterday: 78 °F (at 5:00 PM)
Minimum temperature yesterday: 66 °F (at 8:00 AM)
Average temperature yesterday: 72 °F

Past Weeks' High & Low Weather Summary

 TemperatureHumidityPressure
High99 °F (Jul 4, 5:00 PM)97% (Jun 24, 5:00 AM)30.29 "Hg (Jun 24, 5:00 AM)
Low51 °F (Jun 24, 3:00 AM)24% (Jul 4, 5:00 PM)29.62 "Hg (Jun 23, 2:00 AM)
Average70 °F61%30.09 "Hg
* Reported Jun 22 6:00 PM — Jul 7 6:00 PM, Berlin, Weather by CustomWeather, © 2015

Note: Actual official high and low records may vary slightly from our data, if they occured in-between our weather recording intervals... More about our weather records

Advertising

Berlin weather history for previous 24 hours

 ConditionsComfort  
Time TempWeatherWind HumidityBarometerVisibility
6:00 PM
Tue, Jul 7
90 °FHot.5 mph24%29.74 "HgN/A
5:00 PM89 °FHot.5 mph24%29.78 "HgN/A
4:00 PM87 °FPleasantly warm.3 mph28%29.81 "HgN/A
3:00 PM87 °FPleasantly warm.5 mph30%29.85 "HgN/A
2:00 PM84 °FPleasantly warm.5 mph33%29.88 "HgN/A
1:00 PM82 °FPleasantly warm.3 mph35%29.91 "HgN/A
12:00 PM80 °FPleasantly warm.5 mph39%29.94 "HgN/A
11:00 AM78 °FWarm.2 mph41%29.96 "HgN/A
9:00 AM72 °FMild.2 mph48%30.01 "HgN/A
8:00 AM69 °FMild.1 mph57%30.02 "HgN/A
7:00 AM64 °FMild.1 mph71%30.04 "HgN/A
6:00 AM61 °FCool.1 mph76%30.04 "HgN/A
5:00 AM60 °FCool.1 mph79%30.05 "HgN/A
4:00 AM60 °FCool.1 mph78%30.06 "HgN/A
3:00 AM63 °FMild.2 mph71%30.06 "HgN/A
2:00 AM63 °FMild.1 mph74%30.06 "HgN/A
1:00 AM65 °FMild.2 mph66%30.08 "HgN/A
12:00 AM67 °FMild.2 mph58%30.09 "HgN/A
11:00 PM
Mon, Jul 6
69 °FMild.1 mph53%30.09 "HgN/A
10:00 PM71 °FMild.3 mph48%30.09 "HgN/A
9:00 PM73 °FMild.3 mph44%30.08 "HgN/A
8:00 PM75 °FMild.6 mph39%30.08 "HgN/A
Weather by CustomWeather, © 2015

See weather overviewHow to use our weather pages